DW1133 Weather Reports


Display with metric or nautical units.
time (UTC)temp
F
wind
direction
speed
MPH
gust
MPH
rain 1hr
in
rain 24hr
in
rain mn
in
humidity
%
barometer
mb
20200408181752 56 11 1.0 5.0 0.00 0.00 0.00 40 995.4
20200408181242 56 324 1.0 5.0 0.00 0.00 0.00 40 995.4
20200408180738 56 305 0.0 2.0 0.00 0.00 0.00 38 995.4
20200408180238 57 320 0.0 2.0 0.00 0.00 0.00 41 995.4
20200408175734 57 211 0.0 2.0 0.00 0.00 0.00 41 995.4
20200408175233 56 223 0.0 1.0 0.00 0.00 0.00 41 995.4
20200408174722 56 259 0.0 2.0 0.00 0.00 0.00 43 995.5
20200408174221 56 332 1.0 2.0 0.00 0.00 0.00 40 995.5
20200408173720 56 242 1.0 2.0 0.00 0.00 0.00 43 995.4
20200408173220 56 279 0.0 5.0 0.00 0.00 0.00 42 995.3
20200408172703 57 236 1.0 5.0 0.00 0.00 0.00 43 995.3
20200408172204 56 198 1.0 5.0 0.00 0.00 0.00 43 995.2
20200408171656 56 242 0.0 3.0 0.00 0.00 0.00 46 995.2
20200408171154 56 189 0.0 3.0 0.00 0.00 0.00 46 995.2
20200408170641 56 11 1.0 5.0 0.00 0.00 0.00 47 995.3
20200408170134 55 209 0.0 5.0 0.00 0.00 0.00 47 995.3
20200408165632 55 183 0.0 2.0 0.00 0.00 0.00 51 995.3
20200408165120 54 310 0.0 2.0 0.00 0.00 0.00 50 995.4
20200408164611 54 9 0.0 1.0 0.00 0.00 0.00 53 995.5
20200408164106 53 167 0.0 3.0 0.00 0.00 0.00 55 995.3
20200408163558 53 297 1.0 3.0 0.00 0.00 0.00 51 995.4
20200408163057 52 22 1.0 5.0 0.00 0.00 0.00 52 995.4
20200408162557 52 257 2.0 5.0 0.00 0.00 0.00 52 995.3
20200408162059 52 355 1.0 5.0 0.00 0.00 0.00 56 995.4
20200408161555 51 310 1.0 4.0 0.00 0.00 0.00 56 995.6
20200408161039 51 343 0.0 3.0 0.00 0.00 0.00 55 995.7
20200408160538 51 327 0.0 4.0 0.00 0.00 0.00 54 995.7
20200408160038 51 338 0.0 4.0 0.00 0.00 0.00 55 995.7
20200408155536 51 200 0.0 3.0 0.00 0.00 0.00 57 995.7
20200408155006 51 351 1.0 5.0 0.00 0.00 0.00 59 995.8
20200408154506 50 318 1.0 5.0 0.00 0.00 0.00 57 995.8
20200408153958 51 334 0.0 2.0 0.00 0.00 0.00 58 995.9
20200408153459 50 333 1.0 6.0 0.00 0.00 0.00 58 995.8
20200408152956 49 323 1.0 6.0 0.00 0.00 0.00 58 995.9
20200408152449 49 329 1.0 6.0 0.00 0.00 0.00 58 996.0
20200408151942 49 342 1.0 4.0 0.00 0.00 0.00 58 996.0
20200408151429 49 305 1.0 5.0 0.00 0.00 0.00 58 996.0
20200408150930 49 319 0.0 5.0 0.00 0.00 0.00 61 995.8
20200408150430 50 270 0.0 1.0 0.00 0.00 0.00 64 995.8
20200408145917 49 230 0.0 1.0 0.00 0.00 0.00 66 995.7
20200408145418 49 331 0.0 1.0 0.00 0.00 0.00 65 995.8
20200408144908 48 19 0.0 1.0 0.00 0.00 0.00 62 995.8
20200408144355 49 217 0.0 1.0 0.00 0.00 0.00 63 996.0
20200408143857 48 298 0.0 1.0 0.00 0.00 0.00 64 996.0
20200408143355 48 288 0.0 1.0 0.00 0.00 0.00 67 995.8
20200408142843 47 320 0.0 1.0 0.00 0.00 0.00 66 996.0
20200408142334 47 304 0.0 0.0 0.00 0.00 0.00 67 995.8
20200408141818 47 304 0.0 0.0 0.00 0.00 0.00 68 996.2
20200408141312 47 306 0.0 0.0 0.00 0.00 0.00 66 996.1
20200408140808 46 306 0.0 1.0 0.00 0.00 0.00 67 996.2
20200408140304 46 306 0.0 1.0 0.00 0.00 0.00 67 996.2
20200408135801 46 303 0.0 0.0 0.00 0.00 0.00 67 996.1
20200408135254 46 304 0.0 1.0 0.00 0.00 0.00 68 996.1
20200408134740 46 304 0.0 1.0 0.00 0.00 0.00 68 996.1
20200408134235 46 302 0.0 1.0 0.00 0.00 0.00 69 996.0
20200408133724 46 300 0.0 0.0 0.00 0.00 0.00 70 996.0
20200408133148 46 300 0.0 0.0 0.00 0.00 0.00 71 995.9
20200408132648 46 300 0.0 0.0 0.00 0.00 0.00 71 996.0
20200408132149 46 300 0.0 1.0 0.00 0.00 0.00 71 996.0
20200408131646 46 312 0.0 1.0 0.00 0.00 0.00 71 996.0
20200408131146 46 333 0.0 0.0 0.00 0.00 0.00 74 996.0
20200408130636 46 333 0.0 0.0 0.00 0.00 0.00 74 996.0
20200408130129 46 332 0.0 1.0 0.00 0.00 0.00 75 995.9
20200408125606 46 332 0.0 1.0 0.00 0.00 0.00 75 995.9
20200408125106 46 331 0.0 1.0 0.00 0.00 0.00 75 996.0
20200408124559 45 319 0.0 0.0 0.00 0.00 0.00 75 996.0
20200408124057 45 319 0.0 0.0 0.00 0.00 0.00 76 996.0
20200408123553 45 319 0.0 0.0 0.00 0.00 0.00 76 995.9
20200408123055 45 319 0.0 0.0 0.00 0.00 0.00 77 995.9
20200408122553 44 319 0.0 0.0 0.00 0.00 0.00 77 995.8
20200408122045 44 319 0.0 0.0 0.00 0.00 0.00 78 995.9
20200408121537 44 319 0.0 0.0 0.00 0.00 0.00 81 995.9
20200408121014 44 318 0.0 0.0 0.00 0.00 0.00 82 995.8
20200408120459 44 319 0.0 0.0 0.00 0.00 0.00 83 995.8
20200408115952 44 319 0.0 0.0 0.00 0.00 0.00 80 995.9
20200408115432 43 319 0.0 0.0 0.00 0.00 0.00 81 995.9
20200408114913 43 319 0.0 0.0 0.00 0.00 0.00 82 995.8
20200408114358 43 319 0.0 0.0 0.00 0.00 0.00 82 995.8
20200408113858 43 319 0.0 0.0 0.00 0.00 0.00 82 995.7
20200408113354 43 319 0.0 0.0 0.00 0.00 0.00 81 995.7
20200408112850 43 318 0.0 0.0 0.00 0.00 0.00 81 995.7
20200408112332 43 319 0.0 0.0 0.00 0.00 0.00 81 995.6
20200408111820 43 319 0.0 0.0 0.00 0.00 0.00 81 995.6
20200408111316 43 319 0.0 0.0 0.00 0.00 0.00 80 995.6
20200408110755 43 319 0.0 0.0 0.00 0.00 0.00 80 995.5
20200408110212 43 318 0.0 0.0 0.00 0.00 0.00 79 995.5
20200408105709 43 318 0.0 0.0 0.00 0.00 0.00 77 995.4
20200408105205 43 319 0.0 0.0 0.00 0.00 0.00 78 995.5
20200408104659 43 319 0.0 0.0 0.00 0.00 0.00 77 995.5
20200408104136 44 319 0.0 0.0 0.00 0.00 0.00 76 995.5
20200408103613 44 319 0.0 0.0 0.00 0.00 0.00 75 995.4
20200408103114 44 319 0.0 0.0 0.00 0.00 0.00 75 995.3
20200408102554 44 319 0.0 0.0 0.00 0.00 0.00 75 995.4
20200408102054 44 319 0.0 0.0 0.00 0.00 0.00 75 995.4
20200408101552 44 319 0.0 0.0 0.00 0.00 0.00 72 995.7
20200408101044 44 319 0.0 0.0 0.00 0.00 0.00 69 995.7
20200408100503 44 319 0.0 0.0 0.00 0.00 0.00 69 995.6
20200408095955 45 319 0.0 0.0 0.00 0.00 0.00 67 995.6
20200408095453 45 319 0.0 0.0 0.00 0.00 0.00 67 995.9
20200408094943 45 319 0.0 0.0 0.00 0.00 0.00 66 995.8
20200408094438 45 319 0.0 0.0 0.00 0.00 0.00 65 995.8
20200408093914 45 319 0.0 0.0 0.00 0.00 0.00 62 996.0
20200408093354 46 319 0.0 2.0 0.00 0.00 0.00 62 996.0
20200408092846 46 319 0.0 2.0 0.00 0.00 0.00 62 996.1
20200408092346 46 310 0.0 1.0 0.00 0.00 0.00 57 996.1
20200408091843 46 310 0.0 2.0 0.00 0.00 0.00 55 996.2
20200408091325 45 320 0.0 2.0 0.00 0.00 0.00 59 996.1
20200408090827 45 319 0.0 0.0 0.00 0.00 0.00 60 995.9
20200408090315 44 319 0.0 0.0 0.00 0.00 0.00 66 995.9
20200408085808 43 319 0.0 0.0 0.00 0.00 0.00 65 995.7
20200408085302 43 319 0.0 0.0 0.00 0.00 0.00 68 995.8
20200408084751 43 319 0.0 0.0 0.00 0.00 0.00 70 995.8
20200408084250 43 319 0.0 0.0 0.00 0.00 0.00 72 996.0
20200408083737 43 319 0.0 0.0 0.00 0.00 0.00 72 996.0
20200408083231 44 319 0.0 0.0 0.00 0.00 0.00 72 996.1
20200408082721 44 319 0.0 0.0 0.00 0.00 0.00 69 996.2
20200408082213 44 319 0.0 0.0 0.00 0.00 0.00 71 996.6
20200408081707 44 319 0.0 0.0 0.00 0.00 0.00 69 996.6
20200408081157 44 319 0.0 0.0 0.00 0.00 0.00 68 996.6
20200408080649 44 319 0.0 0.0 0.00 0.00 0.00 67 996.8
20200408080139 44 319 0.0 0.0 0.00 0.00 0.00 65 996.9
20200408075633 44 319 0.0 0.0 0.00 0.00 0.00 66 997.0
20200408075117 44 319 0.0 0.0 0.00 0.00 0.00 62 997.0
20200408074558 44 319 0.0 0.0 0.00 0.00 0.00 64 997.0
20200408074057 44 319 0.0 0.0 0.00 0.00 0.00 62 997.2
20200408073557 44 319 0.0 0.0 0.00 0.00 0.00 61 997.1
20200408073048 44 319 0.0 0.0 0.00 0.00 0.00 64 997.0
20200408072545 44 319 0.0 0.0 0.00 0.00 0.00 69 996.8
20200408072033 43 319 0.0 0.0 0.00 0.00 0.00 63 996.8
20200408071526 43 319 0.0 0.0 0.00 0.00 0.00 63 996.7
20200408071017 43 319 0.0 0.0 0.00 0.00 0.00 68 996.7
20200408070509 43 319 0.0 0.0 0.00 0.00 0.00 63 996.7
20200408065954 43 319 0.0 0.0 0.00 0.00 0.00 61 996.7
20200408065455 43 319 0.0 0.0 0.00 0.00 0.00 62 996.7
20200408064946 43 319 0.0 0.0 0.00 0.00 0.00 60 996.9
20200408064437 43 319 0.0 0.0 0.00 0.00 0.00 63 996.9
20200408063921 43 319 0.0 0.0 0.00 0.00 0.00 60 997.0
20200408063406 43 319 0.0 0.0 0.00 0.00 0.00 61 997.1
20200408062907 43 319 0.0 0.0 0.00 0.00 0.00 60 997.1
20200408062405 43 319 0.0 0.0 0.00 0.00 0.00 61 997.2
20200408061856 42 319 0.0 0.0 0.00 0.00 0.00 63 997.4
20200408061336 42 319 0.0 0.0 0.00 0.00 0.00 65 997.4
20200408060831 42 319 0.0 0.0 0.00 0.00 0.00 68 997.4
20200408060300 42 319 0.0 0.0 0.00 0.00 0.00 66 997.5
20200408055801 42 319 0.0 0.0 0.00 0.00 0.00 67 997.6
20200408055255 41 319 0.0 0.0 0.00 0.00 0.00 67 997.7
20200408054754 41 319 0.0 0.0 0.00 0.00 0.00 67 997.9
20200408054254 41 319 0.0 0.0 0.00 0.00 0.00 69 997.9
20200408053743 41 319 0.0 0.0 0.00 0.00 0.00 72 997.9
20200408053223 41 319 0.0 0.0 0.00 0.00 0.00 73 998.0
20200408052702 42 319 0.0 0.0 0.00 0.00 0.00 72 998.1
20200408052157 42 319 0.0 0.0 0.00 0.00 0.00 71 998.2
20200408051653 42 319 0.0 0.0 0.00 0.00 0.00 69 998.2
20200408051142 42 319 0.0 0.0 0.00 0.00 0.00 67 998.5
20200408050638 42 319 0.0 0.0 0.00 0.00 0.00 71 998.8
20200408050140 41 319 0.0 0.0 0.00 0.00 0.00 71 998.8
20200408045637 42 319 0.0 0.0 0.00 0.00 0.00 71 998.9
20200408045108 41 319 0.0 0.0 0.00 0.00 0.00 71 999.0
20200408044600 41 319 0.0 0.0 0.00 0.00 0.00 72 999.1
20200408044057 41 319 0.0 0.0 0.00 0.00 0.00 70 999.2
20200408043552 42 319 0.0 0.0 0.00 0.00 0.00 70 999.3
20200408043044 41 319 0.0 0.0 0.00 0.00 0.00 68 999.3
20200408042535 42 319 0.0 0.0 0.00 0.00 0.00 66 999.3
20200408042022 42 319 0.0 0.0 0.00 0.00 0.00 67 999.5
20200408041518 42 319 0.0 0.0 0.00 0.00 0.00 66 999.7
20200408040952 42 319 0.0 0.0 0.00 0.00 0.00 70 999.8
20200408040446 42 319 0.0 0.0 0.00 0.00 0.00 70 999.8
20200408035912 42 319 0.0 0.0 0.00 0.00 0.00 68 999.8
20200408035406 42 319 0.0 0.0 0.00 0.00 0.00 66 1000.0
20200408034854 43 319 0.0 0.0 0.00 0.00 0.00 66 999.7
20200408034346 43 319 0.0 0.0 0.00 0.00 0.00 66 999.8
20200408033840 43 319 0.0 0.0 0.00 0.00 0.00 66 999.7
20200408033306 43 319 0.0 0.0 0.00 0.00 0.00 61 999.8
20200408032755 43 319 0.0 0.0 0.00 0.00 0.00 61 999.8
20200408032247 43 319 0.0 0.0 0.00 0.00 0.00 64 999.9
20200408031716 43 319 0.0 0.0 0.00 0.00 0.00 64 999.8
20200408031204 44 319 0.0 0.0 0.00 0.00 0.00 66 999.8
20200408030155 44 319 0.0 0.0 0.00 0.00 0.00 61 1000.0
20200408025647 44 319 0.0 0.0 0.00 0.00 0.00 61 1000.0
20200408025140 44 319 0.0 0.0 0.00 0.00 0.00 63 1000.0
20200408024628 44 324 0.0 0.0 0.00 0.00 0.00 63 1000.1
20200408024127 44 324 0.0 0.0 0.00 0.00 0.00 58 1000.1
20200408023618 44 324 0.0 0.0 0.00 0.00 0.00 58 1000.1
20200408023109 44 324 0.0 0.0 0.00 0.00 0.00 62 1000.2
20200408022602 45 324 0.0 0.0 0.00 0.00 0.00 60 1000.3
20200408022056 45 324 0.0 1.0 0.00 0.00 0.00 55 1000.1
20200408021545 45 324 0.0 1.0 0.00 0.00 0.00 60 1000.2
20200408021040 44 324 0.0 1.0 0.00 0.00 0.00 62 1000.5
20200408020531 45 324 0.0 1.0 0.00 0.00 0.00 60 1000.5
20200408020023 45 324 0.0 2.0 0.00 0.00 0.00 58 1000.5
20200408015510 45 324 0.0 2.0 0.00 0.00 0.00 57 1000.6
20200408015007 44 54 0.0 0.0 0.00 0.00 0.00 61 1000.5
20200408014458 44 54 0.0 0.0 0.00 0.00 0.00 58 1000.4
20200408013953 45 54 0.0 0.0 0.00 0.00 0.00 57 1000.4
20200408013441 45 54 0.0 0.0 0.00 0.00 0.00 58 1000.5
20200408012941 45 54 0.0 0.0 0.00 0.00 0.00 57 1000.6
20200408012429 45 54 0.0 0.0 0.00 0.00 0.00 54 1000.6
20200408011925 46 54 0.0 0.0 0.00 0.00 0.00 52 1000.6
20200408011408 46 54 0.0 0.0 0.00 0.00 0.00 52 1000.6
20200408010901 46 55 0.0 0.0 0.00 0.00 0.00 54 1000.6
20200408010400 46 55 0.0 0.0 0.00 0.00 0.00 53 1000.8
20200408005859 46 54 0.0 0.0 0.00 0.00 0.00 54 1000.8
20200408005359 47 54 0.0 0.0 0.00 0.00 0.00 49 1000.8
20200408004901 47 54 0.0 0.0 0.00 0.00 0.00 50 1000.9
20200408004347 47 55 0.0 0.0 0.00 0.00 0.00 50 1000.8
20200408003841 47 54 0.0 0.0 0.00 0.00 0.00 49 1000.8
20200408003331 48 55 0.0 0.0 0.00 0.00 0.00 48 1000.8
20200408002826 48 55 0.0 0.0 0.00 0.00 0.00 47 1000.8
20200408002328 48 55 0.0 0.0 0.00 0.00 0.00 43 1001.0
20200408001828 49 55 0.0 0.0 0.00 0.00 0.00 41 1001.0
20200408001323 49 54 0.0 0.0 0.00 0.00 0.00 44 1001.0
20200408000823 49 54 0.0 0.0 0.00 0.00 0.00 44 1000.9
20200408000310 50 54 0.0 0.0 0.00 0.00 0.00 40 1000.9
20200407235801 50 54 0.0 0.0 0.00 0.00 0.00 41 1000.9
20200407235300 51 55 0.0 0.0 0.00 0.00 0.00 37 1000.9
20200407234745 51 55 0.0 0.0 0.00 0.00 0.00 39 1000.8
20200407234241 52 55 0.0 0.0 0.00 0.00 0.00 40 1000.8
20200407233741 52 55 0.0 0.0 0.00 0.00 0.00 41 1000.8
20200407233226 53 54 0.0 0.0 0.00 0.00 0.00 35 1000.9
20200407232720 54 54 0.0 0.0 0.00 0.00 0.00 35 1000.9
20200407232221 55 54 0.0 0.0 0.00 0.00 0.00 33 1001.0
20200407231717 55 54 0.0 1.0 0.00 0.00 0.00 34 1001.0
20200407231209 56 54 0.0 1.0 0.00 0.00 0.00 30 1001.1
20200407230658 56 54 0.0 1.0 0.00 0.00 0.00 32 1001.1
20200407230155 56 24 0.0 2.0 0.00 0.00 0.00 31 1001.1
20200407225643 57 24 0.0 2.0 0.00 0.00 0.00 29 1001.1
20200407225140 57 203 0.0 9.0 0.00 0.00 0.00 31 1001.1
20200407224629 58 243 0.0 9.0 0.00 0.00 0.00 32 1000.9
20200407224107 58 199 0.0 2.0 0.00 0.00 0.00 28 1001.1
20200407223559 58 27 0.0 2.0 0.00 0.00 0.00 29 1000.9
20200407223053 58 225 0.0 2.0 0.00 0.00 0.00 26 1000.9
20200407222553 59 350 0.0 7.0 0.00 0.00 0.00 26 1000.9
20200407222031 59 334 1.0 7.0 0.00 0.00 0.00 27 1000.9
20200407221510 60 232 0.0 5.0 0.00 0.00 0.00 25 1001.0
20200407221011 61 238 0.0 5.0 0.00 0.00 0.00 24 1001.1
20200407220511 61 244 0.0 7.0 0.00 0.00 0.00 23 1001.1
20200407220003 61 229 1.0 7.0 0.00 0.00 0.00 23 1001.1
20200407215500 61 208 1.0 5.0 0.00 0.00 0.00 23 1001.1
20200407214958 61 34 0.0 4.0 0.00 0.00 0.00 23 1001.3
20200407214459 61 277 0.0 4.0 0.00 0.00 0.00 23 1001.4
20200407213959 61 89 1.0 4.0 0.00 0.00 0.00 24 1001.6
20200407213451 61 338 1.0 4.0 0.00 0.00 0.00 24 1001.6
20200407212937 62 211 1.0 5.0 0.00 0.00 0.00 23 1001.5
20200407212435 61 241 1.0 5.0 0.00 0.00 0.00 24 1001.5
20200407211921 61 82 1.0 8.0 0.00 0.00 0.00 23 1001.6
20200407211401 61 14 1.0 5.0 0.00 0.00 0.00 22 1001.7
20200407210855 61 188 1.0 4.0 0.00 0.00 0.00 21 1001.7
20200407210353 61 28 2.0 8.0 0.00 0.00 0.00 24 1001.6
20200407205852 61 11 2.0 8.0 0.00 0.00 0.00 21 1001.7
20200407205353 61 49 1.0 8.0 0.00 0.00 0.00 23 1001.7
20200407204853 61 233 1.0 4.0 0.00 0.00 0.00 22 1001.8
20200407204346 61 275 1.0 9.0 0.00 0.00 0.00 24 1001.8
20200407203837 61 5 1.0 12.0 0.00 0.00 0.00 24 1001.8
20200407203335 61 227 1.0 12.0 0.00 0.00 0.00 21 1001.7
20200407202837 60 241 1.0 5.0 0.00 0.00 0.00 22 1001.8
20200407202327 60 343 1.0 5.0 0.00 0.00 0.00 21 1001.8
20200407201817 60 71 1.0 9.0 0.00 0.00 0.00 21 1001.8
20200407201314 60 176 2.0 9.0 0.00 0.00 0.00 21 1001.8
20200407200813 60 253 2.0 8.0 0.00 0.00 0.00 23 1002.0
20200407200314 60 327 1.0 8.0 0.00 0.00 0.00 20 1001.9
20200407195813 60 329 1.0 5.0 0.00 0.00 0.00 22 1001.8
20200407195312 60 159 2.0 7.0 0.00 0.00 0.00 21 1001.9
20200407194813 60 229 2.0 8.0 0.00 0.00 0.00 22 1002.0
20200407194311 60 324 3.0 10.0 0.00 0.00 0.00 21 1002.0
20200407193812 60 355 3.0 10.0 0.00 0.00 0.00 20 1002.0
20200407193309 61 266 3.0 9.0 0.00 0.00 0.00 20 1002.3
20200407192801 61 28 2.0 9.0 0.00 0.00 0.00 20 1002.4
20200407192239 62 270 2.0 10.0 0.00 0.00 0.00 22 1002.4
20200407191730 61 221 3.0 15.0 0.00 0.00 0.00 20 1002.7
20200407191231 62 293 3.0 15.0 0.00 0.00 0.00 20 1002.7
20200407190731 61 340 2.0 9.0 0.00 0.00 0.00 23 1002.6
20200407190221 62 188 1.0 7.0 0.00 0.00 0.00 26 1002.7
20200407185713 62 21 1.0 7.0 0.00 0.00 0.00 21 1002.8
20200407185211 61 235 1.0 7.0 0.00 0.00 0.00 27 1002.8
20200407184709 61 185 2.0 10.0 0.00 0.00 0.00 22 1002.9
20200407184210 61 207 2.0 10.0 0.00 0.00 0.00 22 1003.1
20200407183707 62 225 1.0 7.0 0.00 0.00 0.00 23 1003.1
20200407183205 62 193 2.0 7.0 0.00 0.00 0.00 24 1003.3
20200407182704 60 264 2.0 13.0 0.00 0.00 0.00 27 1003.2
20200407182203 60 321 2.0 13.0 0.00 0.00 0.00 24 1003.4